Location: Guferjoch
(46.7462°N, 8.4506°E)
Time: 12:03:34
(UTC+00:00)

Cosmos 2061 Rocket - Pass Details

Date: 14 July 2020
Orbit: 965 x 1014 km, 82.9° (Epoch: 06 August)

Event Time Altitude Azimuth Distance (km) Brightness Sun altitude
Exits shadow 01:41:57 23° 207° (SSW) 1,990 5.0 -15.6°
Maximum altitude 01:46:02 62° 282° (WNW) 1,112 4.2 -15.2°
Drops below altitude 10° 01:52:17 10° 3° (N) 2,750 7.3 -14.7°
Sets 01:54:50 0° 7° (N) 3,695 8.2 -14.4°
